Mora, MN

10:31 PM CDT on October 20, 2017 (GMT -0500)
Mora Municipal

Weather History for KJMR - November, 2011

Change the Weather History Date:

Sunday, November 13, 2011

  Actual Average Record
Temperature  
Mean Temperature 38 °F -  
Max Temperature 44 °F 38 °F 71 °F (1999)
Min Temperature 33 °F 19 °F -5 °F (1986)
Degree Days  
Heating Degree Days 26    
Moisture  
Dew Point 31 °F    
Average Humidity 75    
Maximum Humidity 87    
Minimum Humidity 61    
Precipitation  
Precipitation 0.00 in - - ()
Sea Level Pressure  
Sea Level Pressure 29.24 in    
Wind  
Wind Speed 5 mph (West)    
Max Wind Speed 13 mph    
Max Gust Speed -    
Visibility 10 miles    
Events      
Averages and records for this station are not official NWS values.
T = Trace of Precipitation, MM = Missing Value Source: NWS Daily Summary

Daily Weather History Graph

Daily Weather History Graph

Search for Another Location

Airport or City:

Trip Planner

Search our weather history database for the weather conditions in past years. The results will help you decide how hot, cold, wet, or windy it might be!

Date:

Astronomy

Nov. 13, 2011 Rise Set
Actual Time 7:10 AM CST 4:44 PM CST
Civil Twilight 6:37 AM CST 5:16 PM CST
Nautical Twilight 6:01 AM CST 5:52 PM CST
Astronomical Twilight 5:26 AM CST 6:27 PM CST
Moon 6:47 PM CST (11/13) 9:49 AM CST (11/13)
Length of Visible Light 10h 38m
Length of Day
9h 33m
Waning Gibbous, 92% of the Moon is Illuminated
Nov 13
Waning Gibbous
Nov 18
Last Quarter
Nov 25
New
Dec 2
First Quarter
Dec 10
Full

Hourly Weather History & Observations

Time (CST) Temp. Windchill Dew Point Humidity Pressure Visibility Wind Dir Wind Speed Gust Speed Precip Events Conditions
12:15 AM 41.0 °F 36.4 °F 32.0 °F 70% 29.16 in 10.0 mi South 6.9 mph - N/A   Clear
12:35 AM 39.2 °F 35.9 °F 32.0 °F 75% 29.17 in 10.0 mi SSW 4.6 mph - N/A   Clear
12:55 AM 39.2 °F 35.0 °F 32.0 °F 75% 29.17 in 10.0 mi SSW 5.8 mph - N/A   Clear
1:15 AM 39.2 °F 37.0 °F 32.0 °F 75% 29.16 in 10.0 mi South 3.5 mph - N/A   Clear
1:35 AM 39.2 °F 37.0 °F 32.0 °F 75% 29.16 in 10.0 mi SSW 3.5 mph - N/A   Clear
2:15 AM 39.2 °F 37.0 °F 32.0 °F 75% 29.16 in 10.0 mi SSW 3.5 mph - N/A   Clear
2:35 AM 37.4 °F 34.9 °F 32.0 °F 81% 29.16 in 10.0 mi SW 3.5 mph - N/A   Clear
2:55 AM 39.2 °F - 32.0 °F 75% 29.15 in 10.0 mi Calm Calm - N/A   Clear
3:15 AM 39.2 °F - 32.0 °F 75% 29.16 in 10.0 mi Calm Calm - N/A   Clear
3:35 AM 37.4 °F 34.9 °F 32.0 °F 81% 29.15 in 10.0 mi SW 3.5 mph - N/A   Clear
3:54 AM 39.2 °F 35.0 °F 32.0 °F 75% 29.17 in 10.0 mi SW 5.8 mph - N/A   Clear
4:15 AM 39.2 °F 35.9 °F 32.0 °F 75% 29.17 in 10.0 mi WSW 4.6 mph - N/A   Clear
4:35 AM 37.4 °F 33.8 °F 32.0 °F 81% 29.17 in 10.0 mi WSW 4.6 mph - N/A   Clear
4:55 AM 37.4 °F 33.8 °F 32.0 °F 81% 29.17 in 10.0 mi SW 4.6 mph - N/A   Clear
5:35 AM 35.6 °F 32.8 °F 32.0 °F 87% 29.19 in 10.0 mi WSW 3.5 mph - N/A   Clear
5:55 AM 35.6 °F 32.8 °F 32.0 °F 87% 29.19 in 10.0 mi WSW 3.5 mph - N/A   Clear
6:14 AM 35.6 °F 32.8 °F 32.0 °F 87% 29.20 in 10.0 mi WSW 3.5 mph - N/A   Clear
6:54 AM 35.6 °F - 30.2 °F 81% 29.19 in 10.0 mi Calm Calm - N/A   Clear
7:55 AM 33.8 °F 30.8 °F 30.2 °F 87% 29.20 in 10.0 mi West 3.5 mph - N/A   Clear
8:15 AM 33.8 °F - 30.2 °F 87% 29.21 in 10.0 mi Calm Calm - N/A   Clear
8:35 AM 35.6 °F - 30.2 °F 81% 29.21 in 10.0 mi Calm Calm - N/A   Clear
8:54 AM 33.8 °F - 30.2 °F 87% 29.22 in 10.0 mi Calm Calm - N/A   Clear
9:15 AM 35.6 °F 32.8 °F 30.2 °F 81% 29.23 in 10.0 mi West 3.5 mph - N/A   Clear
9:35 AM 35.6 °F - 30.2 °F 81% 29.24 in 10.0 mi Calm Calm - N/A   Scattered Clouds
9:55 AM 37.4 °F 33.8 °F 30.2 °F 75% 29.24 in 10.0 mi West 4.6 mph - N/A   Mostly Cloudy
10:14 AM 37.4 °F 32.1 °F 30.2 °F 75% 29.25 in 10.0 mi West 6.9 mph - N/A   Overcast
10:35 AM 42.8 °F 37.5 °F 32.0 °F 66% 29.26 in 10.0 mi WNW 9.2 mph - N/A   Mostly Cloudy
10:55 AM 44.6 °F 39.7 °F 32.0 °F 61% 29.26 in 10.0 mi WNW 9.2 mph - N/A   Scattered Clouds
11:14 AM 42.8 °F 37.5 °F 30.2 °F 61% 29.26 in 10.0 mi West 9.2 mph - N/A   Clear
11:35 AM 42.8 °F 37.0 °F 30.2 °F 61% 29.27 in 10.0 mi West 10.4 mph - N/A   Clear
11:55 AM 41.0 °F 35.2 °F 28.4 °F 61% 29.27 in 10.0 mi West 9.2 mph - N/A   Mostly Cloudy
12:15 PM 41.0 °F 36.4 °F 28.4 °F 61% 29.26 in 10.0 mi West 6.9 mph - N/A   Scattered Clouds
12:35 PM 41.0 °F 34.7 °F 30.2 °F 65% 29.27 in 10.0 mi WNW 10.4 mph - N/A   Mostly Cloudy
12:55 PM 41.0 °F 34.3 °F 30.2 °F 65% 29.26 in 10.0 mi WNW 11.5 mph - N/A   Mostly Cloudy
1:14 PM 41.0 °F 33.9 °F 30.2 °F 65% 29.27 in 10.0 mi NW 12.7 mph - N/A   Scattered Clouds
1:35 PM 39.2 °F 33.0 °F 30.2 °F 70% 29.28 in 10.0 mi NW 9.2 mph - N/A   Scattered Clouds
1:55 PM 41.0 °F 36.4 °F 30.2 °F 65% 29.29 in 10.0 mi WNW 6.9 mph - N/A   Clear
2:15 PM 39.2 °F 34.2 °F 30.2 °F 70% 29.29 in 10.0 mi WNW 6.9 mph - N/A   Mostly Cloudy
2:35 PM 39.2 °F 34.2 °F 30.2 °F 70% 29.29 in 10.0 mi West 6.9 mph - N/A   Overcast
2:55 PM 39.2 °F 35.0 °F 30.2 °F 70% 29.29 in 10.0 mi West 5.8 mph - N/A   Scattered Clouds
3:14 PM 37.4 °F 30.8 °F 30.2 °F 75% 29.31 in 10.0 mi West 9.2 mph - N/A   Scattered Clouds
3:35 PM 37.4 °F 32.8 °F 30.2 °F 75% 29.31 in 10.0 mi WNW 5.8 mph - N/A   Mostly Cloudy
4:15 PM 37.4 °F 31.4 °F 30.2 °F 75% 29.34 in 10.0 mi West 8.1 mph - N/A   Overcast
4:35 PM 37.4 °F 32.8 °F 30.2 °F 75% 29.35 in 10.0 mi West 5.8 mph - N/A   Overcast
4:55 PM 37.4 °F 32.1 °F 30.2 °F 75% 29.35 in 10.0 mi West 6.9 mph - N/A   Overcast
5:14 PM 37.4 °F 32.8 °F 30.2 °F 75% 29.36 in 10.0 mi West 5.8 mph - N/A   Overcast
5:35 PM 35.6 °F 28.6 °F 28.4 °F 75% 29.37 in 10.0 mi West 9.2 mph - N/A   Scattered Clouds
5:55 PM 35.6 °F 28.0 °F 28.4 °F 75% 29.38 in 10.0 mi West 10.4 mph - N/A   Clear
6:15 PM 35.6 °F 29.2 °F 28.4 °F 75% 29.39 in 10.0 mi West 8.1 mph - N/A   Scattered Clouds
6:35 PM 35.6 °F 29.2 °F 28.4 °F 75% 29.39 in 10.0 mi West 8.1 mph - N/A   Scattered Clouds
6:54 PM 35.6 °F 30.7 °F 28.4 °F 75% 29.40 in 10.0 mi West 5.8 mph - N/A   Scattered Clouds
7:14 PM 33.8 °F 30.8 °F 28.4 °F 81% 29.40 in 10.0 mi West 3.5 mph - N/A   Clear
7:35 PM 33.8 °F - 28.4 °F 81% 29.40 in 10.0 mi Calm Calm - N/A   Clear
7:55 PM 33.8 °F 30.8 °F 28.4 °F 81% 29.41 in 10.0 mi SW 3.5 mph - N/A   Scattered Clouds
8:15 PM 33.8 °F - 28.4 °F 81% 29.42 in 10.0 mi Calm Calm - N/A   Mostly Cloudy
8:35 PM 33.8 °F - 28.4 °F 81% 29.41 in 10.0 mi Calm Calm - N/A   Overcast
8:54 PM 33.8 °F - 28.4 °F 81% 29.42 in 10.0 mi Calm Calm - N/A   Overcast
9:15 PM 32.0 °F - 28.4 °F 87% 29.42 in 10.0 mi Calm Calm - N/A   Scattered Clouds
9:35 PM 32.0 °F - 28.4 °F 87% 29.42 in 10.0 mi Calm Calm - N/A   Clear
9:55 PM 30.2 °F - 26.6 °F 86% 29.42 in 10.0 mi Calm Calm - N/A   Clear
10:15 PM 32.0 °F - 28.4 °F 87% 29.43 in 10.0 mi Calm Calm - N/A   Clear
10:35 PM 32.0 °F - 28.4 °F 87% 29.42 in 10.0 mi Calm Calm - N/A   Clear
10:55 PM 30.2 °F - 26.6 °F 86% 29.42 in 10.0 mi Calm Calm - N/A   Clear
11:15 PM 30.2 °F - 26.6 °F 86% 29.43 in 7.0 mi Calm Calm - N/A   Clear
11:34 PM 30.2 °F 26.7 °F 28.4 °F 93% 29.43 in 10.0 mi SSW 3.5 mph - N/A   Clear
11:55 PM 32.0 °F 27.5 °F 28.4 °F 87% 29.43 in 10.0 mi SSW 4.6 mph - N/A   Clear